Flag for U.S.A. Weather past 2 weeks in Costa Mesa, California, U.S.A.

Now
76 °F

Scattered clouds.


Feels Like: 78 °F
Forecast: 66 / 75 °F
Wind: 10 mph from Southwest

Location: John Wayne Airport-Orange County Airport

Current Time: Sep 2, 2015 at 5:09:18 PM

Latest Report: Sep 2, 2015 at 3:53 PM


Visibility: 10 mi

Pressure: 29.90 "Hg

Humidity: 58%

Dew point: 60 °F

Location of Costa MesaLocation

Historic Weather in Costa Mesa — Graph

°F

Costa Mesa temperature yesterday

Maximum temperature yesterday: 76 °F (at 11:53 AM)
Minimum temperature yesterday: 69 °F (at 8:53 PM)
Average temperature yesterday: 71 °F

Past Weeks' High & Low Weather Summary

 TemperatureHumidityPressure
High91 °F (Aug 28, 11:53 AM)93% (Aug 26, 3:53 AM)29.98 "Hg (Aug 26, 3:53 AM)
Low67 °F (Aug 23, 1:53 AM)32% (Aug 28, 11:53 AM)29.80 "Hg (Aug 28, 6:53 PM)
Average74 °F71%29.89 "Hg
* Reported Aug 18 3:53 PM — Sep 2 3:53 PM, Costa Mesa, Weather by CustomWeather, © 2015

Note: Actual official high and low records may vary slightly from our data, if they occured in-between our weather recording intervals... More about our weather records

Advertising

Costa Mesa weather history for previous 24 hours

 ConditionsComfort  
Time TempWeatherWind HumidityBarometerVisibility
3:53 PM
Wed, Sep 2
76 °FScattered clouds.10 mph58%29.90 "Hg10 mi
2:53 PM76 °FScattered clouds.9 mph58%29.91 "Hg10 mi
1:53 PM76 °FScattered clouds.9 mph58%29.93 "Hg10 mi
12:53 PM75 °FScattered clouds.7 mph62%29.95 "Hg10 mi
11:53 AM75 °FScattered clouds.8 mph60%29.96 "Hg10 mi
10:53 AM74 °FBroken clouds.7 mph64%29.96 "Hg10 mi
9:53 AM72 °FPartly sunny.7 mph66%29.96 "Hg10 mi
8:53 AM73 °FPartly sunny.No wind59%29.97 "Hg10 mi
7:53 AM71 °FOvercast.3 mph63%29.96 "Hg10 mi
6:53 AM70 °FOvercast.3 mph68%29.96 "Hg10 mi
5:53 AM70 °FOvercast.5 mph71%29.95 "Hg10 mi
4:53 AM70 °FOvercast.7 mph71%29.94 "Hg10 mi
3:53 AM70 °FOvercast.3 mph76%29.93 "Hg10 mi
2:53 AM70 °FOvercast.No wind76%29.94 "Hg10 mi
1:53 AM70 °FOvercast.3 mph76%29.95 "Hg10 mi
12:53 AM69 °FOvercast.No wind76%29.96 "Hg10 mi
11:53 PM
Tue, Sep 1
69 °FOvercast.3 mph76%29.95 "Hg10 mi
10:53 PM69 °FOvercast.5 mph79%29.95 "Hg10 mi
9:53 PM69 °FPassing clouds.5 mph76%29.95 "Hg10 mi
8:53 PM69 °FPartly cloudy.8 mph76%29.93 "Hg10 mi
7:53 PM70 °FPartly sunny.6 mph73%29.91 "Hg10 mi
6:53 PM71 °FPartly sunny.8 mph71%29.89 "Hg10 mi
5:53 PM72 °FPartly sunny.9 mph68%29.89 "Hg10 mi
Weather by CustomWeather, © 2015

See weather overviewHow to use our weather pages